Regional Weather Roundup
Issued by NWS Sterling, VA

Home | Current Version | Previous Version | Graphics & Text | Print | Product List | Glossary On
Versions: 1 2 3 4 5 6 7 8 9 10 11 12 13 14 15 16 17 18 19 20 21 22 23 24 25 26 27 28 29 30 31 32 33 34 35 36 37 38 39 40 41 42 43 44 45 46 47 48 49 50
000
ASUS41 KLWX 201510
RWRLWX

REGIONAL WEATHER ROUNDUP
NATIONAL WEATHER SERVICE BALTIMORE MD/WASHINGTON DC
1000 AM EST MON FEB 20 2017

Note: "FAIR" indicates few or no clouds below 12,000 feet
with no significant weather and/or obstructions to visibility.
 TC=TEMPERATURE CELSIUS

 * =Non NWS site. Station does not report precipitation (e.g. rain,
    snow, etc.), thunder, or fog.

DCZ001-MDZ009-015-VAZ040>042-051-053>054-201600-
WASHINGTON METRO

CITY           SKY/WX    TMP DP  RH WIND       PRES   REMARKS
WASHINGTON NAT MOSUNNY   60  41  49 N14G22    30.25R
DULLES         MOSUNNY   57  42  57 N10       30.26R
ANDREWS AFB    SUNNY     58  36  43 N15       30.23R
FT BELVOIR     SUNNY     59  41  52 N7        30.25R
QUANTICO       SUNNY     53  44  71 E6        30.26R
COLLEGE PARK*  SUNNY     57  36  44 NW13      30.24R
LEESBURG*      SUNNY     59  45  58 N10G21    30.27R
MANASSAS*      SUNNY     60  43  53 N9        30.25R
GAITHERSBURG*  SUNNY     55  37  50 NW10G17   30.28R

$$

MDZ006>007-011-014-201600-
BALTIMORE METRO

CITY           SKY/WX    TMP DP  RH WIND       PRES   REMARKS
BWI AIRPORT    MOSUNNY   58  36  43 NW6       30.23S
MD SCIENCE CTR   N/A     57  31  37 MISG      30.25R
MARTIN STATE   SUNNY     57  36  44 CALM      30.25
ANNAPOLIS      SUNNY     55  34  45 N9        30.24R
FORT MEADE*    SUNNY     57  34  41 NW7       30.26R

$$

MDZ012-015-019>023-201600-
MARYLAND EASTERN SHORE

CITY           SKY/WX    TMP DP  RH WIND       PRES   REMARKS
OCEAN CITY     SUNNY     56  36  47 NE15      30.21S
SALISBURY      SUNNY     57  35  43 N14       30.21R
BAY BRIDGE AP* SUNNY     54  36  50 N6        30.25R
EASTON*        SUNNY     57  34  41 NE9       30.26S

$$

MDZ017>025-201600-
SOUTHERN MARYLAND

CITY           SKY/WX    TMP DP  RH WIND       PRES   REMARKS
PATUXENT RIVER SUNNY     57  43  59 N7        30.23R
ST INIGOES     SUNNY     59  41  51 VRB6      30.23R
LEONARDTOWN*   SUNNY     57  39  51 NW8       30.25R

$$

MDZ003>005-201600-
NORTH CENTRAL MARYLAND

CITY           SKY/WX    TMP DP  RH WIND       PRES   REMARKS
FREDERICK*     SUNNY     57  37  47 N10G17    30.27S
HAGERSTOWN APT SUNNY     56  34  43 NW12      30.26R
WESTMINSTER*   SUNNY     54  34  47 N5        30.24R

$$

MDZ501>502-201600-
WESTERN MARYLAND

CITY           SKY/WX    TMP DP  RH WIND       PRES   REMARKS
OAKLAND*       CLOUDY    43  39  87 NW6       30.27S
CUMBERLAND*    SUNNY     54  43  66 CALM      30.30S

$$

VAZ025>031-201600-
SHENANDOAH VALLEY

CITY           SKY/WX    TMP DP  RH WIND       PRES   REMARKS
WINCHESTER*    CLOUDY    54  41  62 NW12      30.26R
FRONT ROYAL*   MOSUNNY   54  39  58 CALM      30.25S
LURAY*         SUNNY     50  43  76 CALM      30.26S
NEW MARKET*    SUNNY     49  38  66 CALM      30.25S
STAUNTON*      SUNNY     49  38  66 CALM      30.28S
WAYNESBORO*    SUNNY     52  38  58 CALM      30.25S

$$

WVZ021-048>050-054>055-201600-
EASTERN WEST VIRGINIA PANHANDLE

CITY           SKY/WX    TMP DP  RH WIND       PRES   REMARKS
MARTINSBURG    SUNNY     57  41  55 NW10      30.26R
PETERSBURG*    SUNNY     48  41  76 CALM      30.28S

$$

VAZ036>039-050-201600-
CENTRAL FOOTHILLS

CITY           SKY/WX    TMP DP  RH WIND       PRES   REMARKS
CHARLOTTESVILL SUNNY     63  37  38 NE5       30.23R
CULPEPER*      MOSUNNY   59  43  55 N3        30.26R
ORANGE*        SUNNY     57  37  47 CALM      30.26S
GORDONSVILLE*  SUNNY     58  38  46 CALM      30.24S
WARRENTON*     SUNNY     61  37  42 NW10      30.25R

$$

VAZ055>057-201600-
NORTH AND CENTRAL PIEDMONT

CITY           SKY/WX    TMP DP  RH WIND       PRES   REMARKS
FREDERICKSBRG* SUNNY     57  45  63 CALM      30.25R
STAFFORD*      SUNNY     58  44  58 NW6       30.29R

$$

NCZ024-NYZ072-PAZ021-071-VAZ022-071-201600-
OTHER REGIONAL OBSERVATIONS

CITY           SKY/WX    TMP DP  RH WIND       PRES   REMARKS
NEW YORK CITY  SUNNY     47  30  51 NW9       30.21R
PHILADELPHIA   MOSUNNY   52  31  44 N12       30.24R
PITTSBURGH     FOG       42  42 100 CALM      30.30R VSB<1/4
ROANOKE        SUNNY     56  40  55 CALM      30.27R
RICHMOND       MOSUNNY   61  41  47 NE12G22   30.24R
RALEIGH        MOSUNNY   61  40  45 NE8       30.23S

$$

ANZ530>537-201600-
MARINE OBSERVATIONS

STATION/POSITION TIME  TEMP    WIND        PRES
                       AIR SEA DIR/SP/G
                 (UTC) (F)     (DEG/KT/KT) (MB)
THOMAS PT LIGHT  1500   51 40   30/ 12/ 12   N/A
BALT KEY BRIDGE  1448   53     350/  9/  9 1024.0S
COVE POINT       1448   51     360/ 11/ 12 1024.3R
LEWISETTA        1448   55 45  350/  7/ 11 1023.6R
SOLOMONS ISLAND  1448   55 43  360/  6/  7   N/A
PINEY POINT      1448           20/  4/  4   N/A

$$




USA.gov is the U.S. government's official web portal to all federal, state and local government web resources and services.